This demonstration page uses our WeatherBlox Daily Observations layout. Learn more.

Left ArrowRight Arrow

Hourly Observations for March 21, 2021

Temp ( °F °C ) Dew Point ( °F °C ) Humidity (%) Winds ( mph kmh ) Pressure ( in mb ) Visibility ( mi km ) Precip ( " mm )
12:15 am 00:15 Clear 50 10.2 39 3.7 64 64 SSE 22 35 29.87 1012 10 16 N/A
12:35 am 00:35 Clear 50 9.8 38 3.5 65 65 SSE 21 33 29.86 1011 10 16 N/A
12:55 am 00:55 Clear 49 9.7 38 3.5 66 66 SSE 18 30 29.86 1011 10 16 N/A
1:15 am 01:15 Clear 50 10 38 3.5 64 64 SSE 25 41 29.84 1011 10 16 N/A
1:35 am 01:35 Clear 50 10 38 3.3 63 63 SSE 22 35 29.83 1010 10 16 N/A
1:55 am 01:55 Clear 50 10.1 38 3.2 63 63 SSE 22 35 29.81 1010 10 16 N/A
2:15 am 02:15 Clear 51 10.3 38 3.2 62 62 SSE 25 41 29.80 1009 10 16 N/A
2:35 am 02:35 Clear 51 10.3 38 3.2 62 62 S 23 37 29.80 1009 10 16 N/A
2:55 am 02:55 Clear 51 10.3 38 3.1 61 61 S 26 43 29.78 1008 10 16 N/A
3:15 am 03:15 Clear 51 10.5 38 3.1 60 60 S 29 46 29.77 1008 10 16 N/A
3:35 am 03:35 Clear 51 10.8 38 3.1 59 59 S 30 48 29.77 1008 10 16 N/A
3:55 am 03:55 Clear 51 10.7 37 3 59 59 S 26 43 29.76 1008 10 16 N/A
4:15 am 04:15 Clear 51 10.7 37 3 59 59 S 25 41 29.75 1007 10 16 N/A
4:35 am 04:35 Clear 51 10.6 37 3 60 60 S 26 43 29.75 1007 10 16 N/A
4:55 am 04:55 Clear 51 10.6 37 3 60 60 S 26 43 29.75 1007 10 16 N/A
5:15 am 05:15 Clear 51 10.6 37 2.8 59 59 S 23 37 29.75 1007 10 16 N/A
5:35 am 05:35 Clear 51 10.5 37 2.9 60 60 S 26 43 29.76 1008 10 16 N/A
5:55 am 05:55 Clear 51 10.5 37 2.7 59 59 S 25 41 29.77 1008 10 16 N/A
6:15 am 06:15 Clear 50 10.2 37 2.7 60 60 S 28 44 29.76 1008 10 16 N/A
6:35 am 06:35 Clear 50 10 37 2.7 61 61 S 24 39 29.76 1008 10 16 N/A
6:55 am 06:55 Clear 50 9.8 37 2.7 62 62 S 26 43 29.76 1008 10 16 N/A
7:15 am 07:15 Clear 49 9.5 37 2.7 63 63 S 26 43 29.77 1008 10 16 N/A
7:35 am 07:35 Clear 49 9.3 37 2.7 64 64 S 20 31 29.77 1008 10 16 N/A
7:55 am 07:55 Sunny 48 9.1 37 2.8 65 65 S 18 30 29.78 1008 10 16 N/A
8:15 am 08:15 Sunny 48 9 37 2.9 66 66 S 18 30 29.80 1009 10 16 N/A
8:35 am 08:35 Sunny 48 9 37 3 66 66 S 21 33 29.79 1009 10 16 N/A
8:55 am 08:55 Sunny 48 8.8 37 3 67 67 S 20 31 29.80 1009 10 16 N/A
9:15 am 09:15 Sunny 48 8.9 38 3.1 67 67 S 15 24 29.81 1010 10 16 N/A
9:35 am 09:35 Sunny 48 9 38 3.3 68 68 SSW 15 24 29.82 1010 10 16 N/A
9:55 am 09:55 Sunny 51 10.7 38 3.6 62 62 SSW 18 30 29.81 1009 10 16 N/A
10:15 am 10:15 Sunny 53 11.4 38 3.5 59 59 SW 16 26 29.80 1009 10 16 N/A
10:35 am 10:35 Sunny 53 11.8 38 3.5 57 57 SW 8 13 29.81 1009 10 16 N/A
10:55 am 10:55 Sunny 54 12 38 3.4 56 56 W 8 13 29.82 1010 10 16 N/A
11:15 am 11:15 Sunny 54 12 39 3.8 58 58 WNW 8 13 29.82 1010 10 16 N/A
11:35 am 11:35 Sunny 54 12.3 37 3 53 53 NNW 17 28 29.82 1010 10 16 N/A
11:55 am 11:55 Sunny 54 12.1 36 2.2 51 51 NNW 15 24 29.84 1011 10 16 N/A
12:15 pm 12:15 Sunny 54 12.2 35 1.5 48 48 NNW 20 31 29.84 1011 10 16 N/A
12:35 pm 12:35 Sunny 55 12.5 34 1.3 47 47 NNW 18 30 29.84 1011 10 16 N/A
12:55 pm 12:55 Sunny 55 12.5 34 1.2 46 46 NNW 17 28 29.85 1011 10 16 N/A
1:15 pm 13:15 Sunny 56 13.2 35 1.5 45 45 NNW 15 24 29.84 1011 10 16 N/A
1:35 pm 13:35 Sunny 57 13.7 35 1.6 44 44 NNW 14 22 29.84 1011 10 16 N/A
1:55 pm 13:55 Sunny 57 14.1 35 1.6 43 43 NNW 15 24 29.85 1011 10 16 N/A
2:15 pm 14:15 Sunny 59 15 35 1.7 41 41 N 15 24 29.83 1010 10 16 N/A
2:35 pm 14:35 Sunny 60 15.3 36 2.1 41 41 N 15 24 29.84 1010 10 16 N/A
2:55 pm 14:55 Sunny 60 15.6 35 1.5 39 39 N 15 24 29.83 1010 10 16 N/A
3:15 pm 15:15 Sunny 60 15.5 35 1.5 39 39 NNW 16 26 29.85 1011 10 16 N/A
3:35 pm 15:35 Sunny 61 16.1 35 1.4 37 37 N 14 22 29.83 1010 10 16 N/A
3:55 pm 15:55 Sunny 61 16 34 1.2 37 37 NNW 14 22 29.84 1011 10 16 N/A
4:15 pm 16:15 Sunny 61 16.1 34 1.2 37 37 N 14 22 29.84 1010 10 16 N/A
4:35 pm 16:35 Sunny 61 16.1 34 1 36 36 N 14 22 29.85 1011 10 16 N/A
4:55 pm 16:55 Sunny 61 15.9 33 0.8 36 36 N 12 19 29.85 1011 10 16 N/A
5:15 pm 17:15 Sunny 61 16.2 34 1.2 36 36 NNE 15 24 29.87 1011 10 16 N/A
5:35 pm 17:35 Sunny 60 15.3 33 0.6 37 37 N 14 22 29.88 1012 10 16 N/A
5:55 pm 17:55 Mostly Cloudy 59 15 32 0.2 37 37 N 14 22 29.89 1012 10 16 N/A
6:15 pm 18:15 Partly Cloudy 59 14.9 32 undefined 36 36 N 12 19 29.89 1012 10 16 N/A
6:35 pm 18:35 Sunny 58 14.5 32 undefined 37 37 N 12 19 29.90 1013 10 16 N/A
6:55 pm 18:55 Partly Cloudy 57 14 32 undefined 39 39 N 14 22 29.92 1013 10 16 N/A
7:15 pm 19:15 Partly Cloudy 56 13.1 32 undefined 41 41 N 12 19 29.94 1014 10 16 N/A
7:35 pm 19:35 Partly Cloudy 54 12.1 32 0.1 44 44 N 10 17 29.94 1014 10 16 N/A
7:55 pm 19:55 Clear 52 11.2 33 0.5 48 48 NNW 8 13 29.96 1015 10 16 N/A
8:15 pm 20:15 Clear 50 10.2 33 0.6 52 52 N 7 11 29.97 1015 10 16 N/A
8:35 pm 20:35 Clear 49 9.5 33 0.6 54 54 N 7 11 29.99 1015 10 16 N/A
8:55 pm 20:55 Clear 48 8.8 33 0.7 57 57 N 8 13 30.00 1016 10 16 N/A
9:15 pm 21:15 Clear 47 8.5 33 0.8 59 59 N 7 11 30.02 1016 10 16 N/A
9:35 pm 21:35 Mostly Cloudy 48 8.7 34 1 59 59 N 7 11 30.02 1017 10 16 N/A
9:55 pm 21:55 Cloudy 48 8.7 34 1 59 59 N 6 9 30.01 1016 10 16 N/A
10:15 pm 22:15 Cloudy 46 7.9 34 1 62 62 N 7 11 30.02 1017 10 16 N/A
10:35 pm 22:35 Partly Cloudy 46 7.7 33 0.8 62 62 N 7 11 30.03 1017 10 16 N/A
10:55 pm 22:55 Partly Cloudy 46 8 34 1 62 62 NNW 8 13 30.03 1017 10 16 N/A
11:15 pm 23:15 Partly Cloudy 47 8.3 34 1 60 60 N 8 13 30.03 1017 10 16 N/A
11:35 pm 23:35 Mostly Cloudy 47 8.3 34 1.2 61 61 N 7 11 30.04 1017 10 16 N/A
11:55 pm 23:55 Mostly Cloudy 47 8.3 35 1.4 62 62 N 8 13 30.03 1017 10 16 N/A

Powered by AerisWeather